Niagara Falls, NY

8:00 PM EDT on September 15, 2019 (GMT -0400)
Niagara Falls International

Weather History for KIAG - August, 2019

Change the Weather History Date:

Sunday, August 25, 2019

  Actual Average Record
Temperature  
Mean Temperature 63 °F -  
Max Temperature 75 °F 76 °F 90 °F (1993)
Min Temperature 51 °F 57 °F 48 °F (1989)
Degree Days  
Heating Degree Days 2    
Growing Degree Days 13 (Base 50)    
Moisture  
Dew Point 54 °F    
Average Humidity 72    
Maximum Humidity 96    
Minimum Humidity 48    
Precipitation  
Precipitation 0.00 in - - ()
Sea Level Pressure  
Sea Level Pressure 30.26 in    
Wind  
Wind Speed 6 mph ()    
Max Wind Speed 13 mph    
Max Gust Speed -    
Visibility 10.0 miles    
Events      
Averages and records for this station are not official NWS values.
T = Trace of Precipitation, MM = Missing Value Source: Averaged Metar Reports

Daily Weather History Graph

Daily Weather History Graph

Search for Another Location

Airport or City:

Astronomy

Aug. 25, 2019 Rise Set
Actual Time 6:32 AM EDT 8:02 PM EDT
Civil Twilight 6:02 AM EDT 8:32 PM EDT
Nautical Twilight 5:26 AM EDT 9:08 PM EDT
Astronomical Twilight 4:47 AM EDT 9:46 PM EDT
Moon 1:01 AM EDT (8/25) 4:27 PM EDT (8/25)
Length of Visible Light 14h 30m
Length of Day
13h 30m
Waning Crescent, 29% of the Moon is Illuminated
Aug 25
Waning Crescent
Aug 30
New
Sep 5
First Quarter
Sep 14
Full
Sep 21
Last Quarter

Hourly Weather History & Observations

Time (EDT) Temp. Dew Point Humidity Pressure Visibility Wind Dir Wind Speed Gust Speed Precip Events Conditions
12:53 AM 55.9 °F 52.0 °F 87% 30.29 in 10.0 mi ENE 5.8 mph - N/A   Clear
1:53 AM 55.9 °F 52.0 °F 87% 30.29 in 10.0 mi ESE 5.8 mph - N/A   Clear
2:53 AM 55.0 °F 51.1 °F 86% 30.28 in 10.0 mi ENE 4.6 mph - N/A   Clear
3:53 AM 54.0 °F 51.1 °F 90% 30.27 in 9.0 mi East 3.5 mph - N/A   Clear
4:53 AM 53.1 °F 50.0 °F 89% 30.28 in 10.0 mi East 3.5 mph - N/A   Clear
5:53 AM 53.1 °F 51.1 °F 93% 30.30 in 10.0 mi Calm Calm - N/A   Clear
6:53 AM 51.1 °F 50.0 °F 96% 30.32 in 10.0 mi Calm Calm - N/A   Clear
7:53 AM 55.9 °F 53.1 °F 90% 30.31 in 10.0 mi East 3.5 mph - N/A   Clear
8:53 AM 61.0 °F 54.0 °F 78% 30.32 in 10.0 mi ESE 5.8 mph - N/A   Clear
9:53 AM 66.9 °F 55.0 °F 66% 30.30 in 10.0 mi East 9.2 mph - N/A   Clear
10:53 AM 71.1 °F 55.0 °F 57% 30.30 in 10.0 mi East 9.2 mph - N/A   Clear
11:53 AM 72.0 °F 54.0 °F 53% 30.29 in 10.0 mi East 10.4 mph - N/A   Clear
12:53 PM 73.9 °F 54.0 °F 50% 30.27 in 10.0 mi East 8.1 mph - N/A   Scattered Clouds
1:53 PM 75.0 °F 54.0 °F 48% 30.25 in 10.0 mi East 8.1 mph - N/A   Mostly Cloudy
2:53 PM 73.9 °F 54.0 °F 50% 30.24 in 10.0 mi East 9.2 mph - N/A   Mostly Cloudy
3:53 PM 75.0 °F 54.0 °F 48% 30.22 in 10.0 mi East 12.7 mph - N/A   Scattered Clouds
4:53 PM 75.0 °F 54.0 °F 48% 30.22 in 10.0 mi East 11.5 mph - N/A   Partly Cloudy
5:53 PM 73.9 °F 54.0 °F 50% 30.20 in 10.0 mi East 10.4 mph - N/A   Partly Cloudy
6:53 PM 72.0 °F 57.0 °F 59% 30.21 in 10.0 mi East 10.4 mph - N/A   Clear
7:53 PM 69.1 °F 57.0 °F 65% 30.20 in 10.0 mi East 8.1 mph - N/A   Clear
8:53 PM 64.9 °F 55.9 °F 73% 30.20 in 10.0 mi East 6.9 mph - N/A   Clear
9:53 PM 63.0 °F 57.0 °F 81% 30.20 in 10.0 mi East 6.9 mph - N/A   Clear
10:53 PM 62.1 °F 57.9 °F 86% 30.20 in 10.0 mi East 9.2 mph - N/A   Clear
11:53 PM 61.0 °F 57.0 °F 87% 30.20 in 10.0 mi ESE 4.6 mph - N/A   Clear